Location: Pasarilla del Rebollar
(40.6790°N, 5.0062°W)
Time: 12:00:31
(UTC+00:00)

SL-4 R/B - Pass Details

Date: 22 April 2026
Orbit: 380 x 506 km, 51.6° (Epoch: 13 May)

Event Time Altitude Azimuth Distance (km) Brightness Sun altitude
Exits shadow 04:39:39 - 295° (WNW) 2,315 4.8 -9.9°
Reaches altitude 10° 04:41:21 10° 287° (WNW) 1,690 4.1 -9.6°
Maximum altitude 04:44:39 28° 227° (SW) 933 2.7 -9.1°
Drops below altitude 10° 04:47:51 10° 167° (SSE) 1,628 4.3 -8.5°
Sets 04:50:08 0° 155° (SSE) 2,476 5.4 -8.1°
